CZ-6A DEB, 54306

Orbit data source: Space-Track

CZ-6A DEB, 54306 is space debris in SSO originally from a launch on Fri, 11 Nov 2022 UTC launched from the Taiyaun Space Center, China (TSC). Debris objects in space refer to the collection of defunct objects orbiting the Earth. Examples of debris include non-operational satellites, rocket bodies, and fragments generated from explosions, collisions, or faulty payload assembly.

Loading next visibility...
Identifier
54306, 2022-151AZ
Orbit
SSO
Country
Flag of CNCN / PRC
Related business
Manufacturer
SAST
Mission
Spacecraft
Bus & Motor
Unknown
Mass
Unknown
Launch date (UTC)
2022-11-11 (3 years ago)
Launch vehicle
Unknown
Launch site
Taiyaun Space Center, China (TSC)
Object type
Payload
Rocket body
Debris
Shape & HBR
Unknown shape, 0.2 m
Radar Cross Section
Small (<0.1 m²)

Expand to show TLE details & history
Last TLE update: 15 hours ago

TLE from 15 hours ago
0 CZ-6A DEB
1 54306U 22151AZ  26129.99043734  .00000250  00000-0  15986-3 0  9997
2 54306  98.8353 133.3022 0040953  75.6754 284.8959 14.11651973179207
Epoch: 2026-05-09T23:46Z
TLE epoch observation values (Epoch: 2026-05-09T23:46:13.786Z)
Latitude
-0.00003°
Longitude
-91.05518°
Altitude
849.122 km
Speed
7.432 km/s
True Right ascension
08h 53m 12s
True Declination
0° 00' 00"
Sunlit
Object was in daylight at epoch
Visualization orbit readout
Latitude
Unknown
Longitude
Unknown
Altitude
Unknown
Speed
Unknown
Apparent Right ascension
Unknown
Apparent Declination
Unknown
Sunlit
N/A
Visualization observer readout
Local Sidereal Time
22:57:56
Azimuth
Unknown
Elevation
Unknown
Doppler factor
Unknown
Orbital elements
Apogee altitude
880.505 km
Perigee altitude
821.295 km
Semi-major axis
7,229.037 km
Eccentricity
0.0041
Inclination
98.8353°
RAAN
133.3022°
Arg. of periapsis
75.6754°
True anomaly
284.44179°
Mean anomaly
284.8959°
Eccentric anomaly
284.6689°
Mean motion
3.5312 °/min
Orbital period
101.95 mins
BSTAR
0.00015986
Loading maneuver chart data...
Computing Atmospheric mass density...

Documentation

Showing up to 5 results
|